Tracking 30970 objects as of 3-Jul-2025
HD Live streaming from Space Station
objects crossing your sky now

ONEWEB-0586

Track ONEWEB-0586 now!
10-day predictions
ONEWEB-0586 is classified as:


NORAD ID: 54653
Int'l Code: 2022-166M
Perigee: 1,183.5 km
Apogee: 1,186.2 km
Inclination: 87.9 °
Period: 108.9 minutes
Semi major axis: 7555 km
RCS: Unknown
Launch date: December 8, 2022
Source: United Kingdom (UK)
Launch site: AIR FORCE EASTERN TEST RANGE (AFETR)
Your satellite tracking list
STARLINK-1722
Track 1 satellite(s)




NASA's NSSDC Master Catalog

Two Line Element Set (TLE):
1 54653U 22166M   25183.86085158 -.00000000  00000-0 -32426-4 0  9993
2 54653  87.9272 313.6764 0001774 104.4569 255.6762 13.21827492125840
Source of the keplerian elements: AFSPC